Location: Chantarel
(45.1638°N, 1.7873°E)
Time: 14:28:52
(UTC+00:00)

Cosmos 1503 Rocket - Pass Details

Date: 03 March 2021
Orbit: 753 x 790 km, 74.0° (Epoch: 15 April)

Event Time Altitude Azimuth Distance (km) Brightness Sun altitude
Rises 18:29:01 0° 342° (NNW) 3,230 7.5 -8.9°
Reaches altitude 10° 18:31:28 10° 347° (NNW) 2,296 6.6 -9.3°
Maximum altitude 18:36:32 52° 64° (ENE) 936 4.1 -10.2°
Drops below altitude 10° 18:41:33 10° 141° (SE) 2,272 6.1 -11.1°
Sets 18:43:58 0° 146° (SSE) 3,192 6.9 -11.5°
